Location: Unspecified
(41.1637°N, 24.2901°E)
Time: 14:48:30
(UTC+02:00)

ISS - Pass Details

Date: 03 July 2022
Orbit: 414 x 420 km, 51.6° (Epoch: 05 July)

Event Time Altitude Azimuth Distance (km) Brightness Sun altitude
Exits shadow 03:21:52 - 286° (WNW) 1,723 -0.9 -14.1°
Reaches altitude 10° 03:22:35 10° 293° (WNW) 1,496 -1.1 -14.0°
Maximum altitude 03:25:08 20° 342° (NNW) 1,040 -1.4 -13.7°
Drops below altitude 10° 03:27:42 10° 32° (NNE) 1,501 0.5 -13.4°
Sets 03:30:12 0° 50° (NE) 2,368 2.0 -13.1°
